This is the latest recevied weather packets stored in our database for station/object AK4NG. If no packets are shown the sender has not sent any weather packets the latest 10 day(s).
| Time | Temp. | Humidity | Pressure | Rain* | Wind** | Luminosity | Snow |
|---|---|---|---|---|---|---|---|
| 1777872349 | 10.56° C | 79% | 1019.4 hPa | 0 mm | - | 0 W/m² | - |
| 1777872047 | 10.56° C | 79% | 1019.7 hPa | 0 mm | - | 0 W/m² | - |
| 1777871743 | 11.11° C | 80% | 1019.6 hPa | 0 mm | - | 0 W/m² | - |
| 1777871440 | 11.11° C | 80% | 1019.7 hPa | 0 mm | - | 0 W/m² | - |
| 1777871137 | 11.11° C | 77% | 1019.5 hPa | 0 mm | - | 0 W/m² | - |
| 1777870834 | 11.67° C | 75% | 1020 hPa | 0 mm | - | 0 W/m² | - |
| 1777870531 | 11.67° C | 78% | 1020 hPa | 0 mm | - | 0 W/m² | - |
| 1777870226 | 11.67° C | 80% | 1020 hPa | 0 mm | - | 0 W/m² | - |
| 1777869924 | 11.67° C | 81% | 1020 hPa | 0 mm | - | 0 W/m² | - |
| 1777869621 | 11.67° C | 79% | 1019.9 hPa | 0 mm | - | 0 W/m² | - |
| 1777869318 | 11.67° C | 82% | 1019.8 hPa | 0 mm | - | 0 W/m² | - |
| 1777869015 | 11.67° C | 80% | 1020 hPa | 0 mm | - | 0 W/m² | - |
| 1777868712 | 11.67° C | 79% | 1020.1 hPa | 0 mm | - | 0 W/m² | - |
| 1777868409 | 12.22° C | 79% | 1020.1 hPa | 0 mm | - | 0 W/m² | - |
| 1777868105 | 12.22° C | 78% | 1020.1 hPa | 0 mm | - | 0 W/m² | - |
| 1777867801 | 12.22° C | 80% | 1020.3 hPa | 0 mm | - | 0 W/m² | - |
| 1777867499 | 12.22° C | 79% | 1020 hPa | 0 mm | - | 0 W/m² | - |
| 1777867194 | 12.22° C | 79% | 1020 hPa | 0 mm | - | 0 W/m² | - |
| 1777866892 | 12.22° C | 79% | 1020 hPa | 0 mm | - | 0 W/m² | - |
| 1777866588 | 12.22° C | 79% | 1019.9 hPa | 0 mm | - | 0 W/m² | - |
| 1777866286 | 12.22° C | 76% | 1019.7 hPa | 0 mm | - | 0 W/m² | - |
| 1777865983 | 12.22° C | 76% | 1019.9 hPa | 0 mm | - | 0 W/m² | - |
| 1777865681 | 12.22° C | 77% | 1020 hPa | 0 mm | - | 0 W/m² | - |
| 1777865378 | 12.22° C | 78% | 1019.9 hPa | 0 mm | - | 0 W/m² | - |
| 1777865074 | 12.78° C | 78% | 1019.9 hPa | 0 mm | - | 0 W/m² | - |
* Rain latest hour (hover to see other rain measurements)
** Current wind speed in m/s (hover to see current wind gust speed)